Location: Barrio de Buenos Aires
(28.4500°N, 16.2667°W)
Time: 18:41:33
(UTC+00:00)

Cosmos 2056 Rocket - Pass Details

Date: 24 January 2020
Orbit: 741 x 801 km, 74.0° (Epoch: 27 February)

Event Time Altitude Azimuth Distance (km) Brightness Sun altitude
Rises 20:38:27 0° 197° (SSW) 3,191 7.0 -26.4°
Reaches altitude 10° 20:40:47 10° 198° (SSW) 2,277 6.2 -26.9°
Enters shadow 20:45:42 78° 240° (WSW) 785 3.5 -28.0°
